tititudorancea.com
Station Historical Data
Daily Summary for January 14, 2019 Units:  Metric    English   Both
« Previous Day
Next Day »
Daily Weekly Monthly Yearly Custom
  High: Low: Average:
Temperature: -17.8 °C 13 °C 24.9 °C
Dew Point: -17.8 °C 0.8 °C 10.4 °C
Humidity: Humidity % 10 % 52 %
Wind Speed: 0 km/h 0 km/h 11.6 km/h
Wind Gust: 0 km/h - -
Wind:- - SW
Pressure: 0 hPa 1006.7 hPa -
Precipitation: 0 mm    
Historical Graphs
 
 
Ararat weather Find more about Weather in Ararat, AU


 



 


Tabular Data for January 14, 2019
Time Temperature Dew Point Pressure Wind Wind Speed Wind Gust Humidity Rainfall Rate (Hourly)
-17.8 °C -17.8 °C 0 hPa Calm     Humidity % 0 mm
00:04 17.6 °C 13.6 °C 1012.8 hPa South 14.8 km/h 9.2 km/h 77 % 0 mm
00:09 17.5 °C 13.4 °C 1012.8 hPa South 18.5 km/h 11.6 km/h 77 % 0 mm
00:14 17.4 °C 13.5 °C 1012.8 hPa SSW 14.8 km/h 9.2 km/h 78 % 0 mm
00:19 17.3 °C 13.4 °C 1012.8 hPa SSW 14.8 km/h 10.9 km/h 78 % 0 mm
00:24 17.2 °C 13.5 °C 1012.4 hPa SSW 14.8 km/h 10.3 km/h 79 % 0 mm
00:29 17.1 °C 13.6 °C 1012.4 hPa North 14.5 km/h 10.5 km/h 80 % 0 mm
00:34 17.1 °C 13.6 °C 1012.4 hPa South 18.5 km/h 10.8 km/h 80 % 0 mm
00:39 17 °C 13.5 °C 1012.4 hPa North 14.8 km/h 11.9 km/h 80 % 0 mm
00:44 16.9 °C 13.4 °C 1012.1 hPa South 20.4 km/h 10.8 km/h 80 % 0 mm
00:49 16.8 °C 13.6 °C 1012.1 hPa South 17.7 km/h 10.6 km/h 81 % 0 mm
00:54 16.7 °C 13.4 °C 1012.1 hPa South 16.7 km/h 10.1 km/h 81 % 0 mm
00:59 16.7 °C 13.6 °C 1012.1 hPa SSW 18.5 km/h 9.5 km/h 82 % 0 mm
01:04 16.7 °C 13.6 °C 1012.1 hPa SSW 13 km/h 11.9 km/h 82 % 0 mm
01:09 16.6 °C 13.5 °C 1012.1 hPa SSW 18.5 km/h 10 km/h 82 % 0 mm
01:14 16.6 °C 13.7 °C 1012.1 hPa North 16.7 km/h 10.9 km/h 83 % 0 mm
01:19 16.5 °C 13.6 °C 1012.1 hPa SSW 18.5 km/h 11.1 km/h 83 % 0 mm
01:24 16.3 °C 13.4 °C 1012.1 hPa SSW 14.8 km/h 11.3 km/h 83 % 0 mm
01:29 16.1 °C 13.4 °C 1012.1 hPa SSW 14.5 km/h 12.9 km/h 84 % 0 mm
01:34 16.1 °C 13.3 °C 1012.1 hPa SSW 13 km/h 8.9 km/h 84 % 0 mm
01:39 15.9 °C 13.4 °C 1012.1 hPa SSW 16.7 km/h 9.8 km/h 85 % 0 mm
01:44 15.9 °C 13.4 °C 1012.1 hPa SSW 16.7 km/h 8 km/h 85 % 0 mm
01:49 15.8 °C 13.3 °C 1011.7 hPa SSW 13 km/h 8.4 km/h 85 % 0 mm
01:54 15.8 °C 13.4 °C 1011.7 hPa SSW 11.3 km/h 9.3 km/h 86 % 0 mm
01:59 15.8 °C 13.4 °C 1011.7 hPa SSW 6.4 km/h 6.9 km/h 86 % 0 mm
02:04 15.8 °C 13.5 °C 1011.7 hPa SSW 18.5 km/h 15 km/h 86 % 0 mm
02:09 15.8 °C 13.5 °C 1011.7 hPa SSW 13 km/h 7.1 km/h 86 % 0 mm
02:14 15.8 °C 13.6 °C 1011.4 hPa SSW 16.7 km/h 8.4 km/h 87 % 0 mm
02:19 15.7 °C 13.6 °C 1011.4 hPa North 16.7 km/h 8 km/h 87 % 0 mm
02:24 15.7 °C 13.6 °C 1011.4 hPa SSW 9.3 km/h 7.1 km/h 87 % 0 mm
02:29 15.7 °C 13.5 °C 1011.4 hPa SSW 16.7 km/h 10.1 km/h 87 % 0 mm
02:34 15.6 °C 13.4 °C 1011.4 hPa SSW 11.1 km/h 7.1 km/h 87 % 0 mm
02:39 15.6 °C 13.6 °C 1011.4 hPa South 11.3 km/h 8.9 km/h 88 % 0 mm
02:44 15.5 °C 13.5 °C 1011.1 hPa North 11.1 km/h 6.9 km/h 88 % 0 mm
02:49 15.3 °C 13.3 °C 1011.1 hPa SSW 9.3 km/h 6.3 km/h 88 % 0 mm
02:54 15.2 °C 13.2 °C 1011.1 hPa North 9.3 km/h 8.4 km/h 88 % 0 mm
02:59 15.1 °C 13.1 °C 1011.1 hPa North 7.4 km/h 6.1 km/h 88 % 0 mm
03:04 15 °C 13.2 °C 1011.1 hPa South 7.4 km/h 6.9 km/h 89 % 0 mm
03:09 14.9 °C 13.2 °C 1010.7 hPa South 9.7 km/h 6.6 km/h 89 % 0 mm
03:14 14.8 °C 13.1 °C 1010.7 hPa SSW 9.3 km/h 6.6 km/h 89 % 0 mm
03:19 14.8 °C 13.2 °C 1010.7 hPa SSW 11.1 km/h 6 km/h 90 % 0 mm
03:24 14.7 °C 13.1 °C 1010.7 hPa North 11.3 km/h 6.9 km/h 90 % 0 mm
03:29 14.7 °C 13.1 °C 1010.7 hPa North 9.3 km/h 6.6 km/h 90 % 0 mm
03:34 14.7 °C 13.2 °C 1010.7 hPa SSW 9.3 km/h 6.6 km/h 91 % 0 mm
03:39 14.7 °C 13.2 °C 1010.7 hPa South 9.3 km/h 5.6 km/h 91 % 0 mm
03:44 14.6 °C 13.1 °C 1010.4 hPa North 7.4 km/h 7.4 km/h 91 % 0 mm
03:49 14.5 °C 13.1 °C 1010.7 hPa South 5.6 km/h 2.6 km/h 91 % 0 mm
03:54 14.5 °C 13.1 °C 1010.7 hPa South 7.4 km/h 6.9 km/h 91 % 0 mm
03:59 14.5 °C 13.1 °C 1010.7 hPa SSW 5.6 km/h 4.8 km/h 91 % 0 mm
04:04 14.4 °C 13 °C 1010.4 hPa South 6.4 km/h 6.1 km/h 91 % 0 mm
04:09 14.4 °C 12.9 °C 1010.4 hPa SSW 6.4 km/h 2.7 km/h 91 % 0 mm
04:14 14.3 °C 13.1 °C 1010.4 hPa North 7.4 km/h 5.1 km/h 92 % 0 mm
04:19 14.3 °C 13.1 °C 1010.4 hPa South 5.6 km/h 5 km/h 92 % 0 mm
04:24 14.3 °C 13.1 °C 1010.4 hPa North 5.6 km/h 4.2 km/h 92 % 0 mm
04:29 14.3 °C 13 °C 1010.4 hPa South 5.6 km/h 4.7 km/h 92 % 0 mm
04:34 14.3 °C 13 °C 1010.4 hPa North 5.6 km/h 2.6 km/h 92 % 0 mm
04:39 14.2 °C 12.9 °C 1010.4 hPa SSW 5.6 km/h 2.3 km/h 92 % 0 mm
04:44 14.2 °C 12.9 °C 1010.4 hPa North 5.6 km/h 2.1 km/h 92 % 0 mm
04:49 14.1 °C 12.8 °C 1010.4 hPa South 3.2 km/h 1.8 km/h 92 % 0 mm
04:54 13.9 °C 12.7 °C 1010.7 hPa North 5.6 km/h 2.9 km/h 92 % 0 mm
04:59 13.9 °C 12.8 °C 1010.7 hPa North 5.6 km/h 2.4 km/h 93 % 0 mm
05:04 13.9 °C 12.8 °C 1010.7 hPa SSW 7.4 km/h 5.3 km/h 93 % 0 mm
05:09 14.1 °C 12.9 °C 1010.7 hPa North 11.3 km/h 8.4 km/h 93 % 0 mm
05:14 14.1 °C 13 °C 1010.7 hPa SSW 13 km/h 6.6 km/h 93 % 0 mm
05:19 14.1 °C 12.9 °C 1010.7 hPa South 11.1 km/h 8.4 km/h 93 % 0 mm
05:24 14 °C 12.9 °C 1010.7 hPa North 8 km/h 4.7 km/h 93 % 0 mm
05:29 13.9 °C 12.8 °C 1010.7 hPa North 9.3 km/h 4.7 km/h 93 % 0 mm
05:34 13.9 °C 12.8 °C 1010.7 hPa North 9.3 km/h 6.6 km/h 93 % 0 mm
05:39 13.8 °C 12.8 °C 1011.1 hPa North 9.3 km/h 5.8 km/h 94 % 0 mm
05:44 13.7 °C 12.8 °C 1010.7 hPa SSW 9.3 km/h 6.6 km/h 94 % 0 mm
05:49 13.7 °C 12.8 °C 1011.1 hPa SSW 9.3 km/h 3.5 km/h 94 % 0 mm
05:54 13.7 °C 12.7 °C 1011.1 hPa South 5.6 km/h 4.3 km/h 94 % 0 mm
05:59 13.7 °C 12.7 °C 1011.1 hPa South 6.4 km/h 3.9 km/h 94 % 0 mm
06:04 13.6 °C 12.7 °C 1011.1 hPa SSW 7.4 km/h 3.9 km/h 94 % 0 mm
06:09 13.6 °C 12.7 °C 1011.1 hPa SSW 3.7 km/h 3.5 km/h 94 % 0 mm
06:14 13.6 °C 12.6 °C 1011.1 hPa North 5.6 km/h 0.5 km/h 94 % 0 mm
06:19 13.5 °C 12.6 °C 1011.1 hPa South 5.6 km/h 3.7 km/h 94 % 0 mm
06:24 13.4 °C 12.4 °C 1011.1 hPa SSW 5.6 km/h 4 km/h 94 % 0 mm
06:29 13.3 °C 12.3 °C 1011.4 hPa South 9.3 km/h 5.6 km/h 94 % 0 mm
06:34 13.2 °C 12.3 °C 1011.4 hPa SSW 5.6 km/h 2.9 km/h 94 % 0 mm
06:39 13.2 °C 12.4 °C 1011.4 hPa South 3.7 km/h 0.6 km/h 95 % 0 mm
06:44 13.2 °C 12.4 °C 1011.4 hPa South 3.7 km/h   95 % 0 mm
06:49 13.2 °C 12.4 °C 1011.4 hPa South 3.7 km/h 1 km/h 95 % 0 mm
06:54 13.1 °C 12.3 °C 1011.4 hPa SSW 3.2 km/h 1 km/h 95 % 0 mm
06:59 13.1 °C 12.3 °C 1011.4 hPa South 3.2 km/h 0.8 km/h 95 % 0 mm
07:04 13.1 °C 12.3 °C 1011.4 hPa North 5.6 km/h 4.2 km/h 95 % 0 mm
07:09 13.1 °C 12.3 °C 1011.4 hPa South 1.9 km/h 1.6 km/h 95 % 0 mm
07:14 13.1 °C 12.3 °C 1011.4 hPa SSW 3.2 km/h 3.1 km/h 95 % 0 mm
07:19 13.1 °C 12.3 °C 1011.4 hPa South 5.6 km/h 1.4 km/h 95 % 0 mm
07:24 13 °C 12.2 °C 1011.4 hPa Calm     95 % 0 mm
07:29 13.1 °C 12.3 °C 1011.4 hPa North 3.7 km/h 2.4 km/h 95 % 0 mm
07:34 13.1 °C 12.3 °C 1011.7 hPa SSW 5.6 km/h 2.9 km/h 95 % 0 mm
07:39 13.1 °C 12.3 °C 1011.7 hPa SSW 5.6 km/h 3.4 km/h 95 % 0 mm
07:44 13.2 °C 12.6 °C 1011.4 hPa SSW 5.6 km/h 1.4 km/h 96 % 0 mm
07:49 13.3 °C 12.7 °C 1011.7 hPa SSW 3.2 km/h 1 km/h 96 % 0 mm
07:54 13.5 °C 12.9 °C 1011.4 hPa Calm     96 % 0 mm
07:59 13.6 °C 12.8 °C 1011.4 hPa Calm     95 % 0 mm
08:04 13.5 °C 12.7 °C 1011.4 hPa Calm     95 % 0 mm
08:09 13.6 °C 12.9 °C 1011.4 hPa Calm     96 % 0 mm
08:14 13.7 °C 13.1 °C 1011.4 hPa Calm     96 % 0 mm
08:19 14.1 °C 13.4 °C 1011.4 hPa Calm     96 % 0 mm
08:24 14.3 °C 13.7 °C 1011.4 hPa Calm     96 % 0 mm
08:29 14.2 °C 13.4 °C 1011.4 hPa Calm     95 % 0 mm
08:34 14.4 °C 13.8 °C 1011.4 hPa Calm     96 % 0 mm
08:39 14.8 °C 14.2 °C 1011.4 hPa South 1.9 km/h 1.4 km/h 96 % 0 mm
08:44 15 °C 14.4 °C 1011.4 hPa Calm     96 % 0 mm
08:49 15.2 °C 14.6 °C 1011.4 hPa Calm     96 % 0 mm
08:54 15.7 °C 15.1 °C 1011.4 hPa South 3.7 km/h   96 % 0 mm
08:59 16.3 °C 15.7 °C 1011.4 hPa SSW 5.6 km/h 3.9 km/h 96 % 0 mm
09:04 16.7 °C 16 °C 1011.4 hPa South 3.7 km/h 1.9 km/h 96 % 0 mm
09:09 16.8 °C 16 °C 1011.4 hPa SSW 5.6 km/h 4.8 km/h 95 % 0 mm
09:14 17.2 °C 16.2 °C 1011.4 hPa SSW 5.6 km/h 3.2 km/h 94 % 0 mm
09:19 17.6 °C 16.6 °C 1011.4 hPa SSW 5.6 km/h 3.9 km/h 94 % 0 mm
09:24 18.3 °C 17 °C 1011.4 hPa SSW 5.6 km/h 3.9 km/h 92 % 0 mm
09:29 18.9 °C 16.7 °C 1011.1 hPa South 3.7 km/h 2.4 km/h 87 % 0 mm
09:34 19.4 °C 16.8 °C 1011.1 hPa SSW 5.6 km/h 1.9 km/h 85 % 0 mm
09:39 20.3 °C 16.4 °C 1011.1 hPa South 5.6 km/h 0.8 km/h 78 % 0 mm
09:44 20.8 °C 16.2 °C 1011.1 hPa SSW 3.7 km/h 1 km/h 75 % 0 mm
09:49 21.8 °C 16.3 °C 1011.1 hPa SSW 5.6 km/h 2.7 km/h 71 % 0 mm
09:54 22 °C 15.8 °C 1011.1 hPa SSW 4.8 km/h 1.8 km/h 68 % 0 mm
09:59 22.4 °C 15.9 °C 1011.1 hPa SSW 3.7 km/h 2.3 km/h 67 % 0 mm
10:04 22.8 °C 16.2 °C 1011.1 hPa South 5.6 km/h 0.2 km/h 66 % 0 mm
10:09 23.6 °C 16.4 °C 1010.7 hPa SSW 1.9 km/h 0.2 km/h 64 % 0 mm
10:14 24.3 °C 16.1 °C 1010.7 hPa SSW 1.9 km/h 0.2 km/h 60 % 0 mm
10:19 24.8 °C 15.9 °C 1010.7 hPa South 4.8 km/h 1.6 km/h 58 % 0 mm
10:24 24.9 °C 15.6 °C 1010.7 hPa SSW 3.7 km/h 1.6 km/h 56 % 0 mm
10:29 25.2 °C 15.5 °C 1010.4 hPa South 3.7 km/h 1.6 km/h 55 % 0 mm
10:34 26.2 °C 15.3 °C 1010.4 hPa South 5.6 km/h 2.7 km/h 51 % 0 mm
10:39 26.9 °C 14.9 °C 1010.4 hPa SSW 7.4 km/h 2.3 km/h 48 % 0 mm
10:44 27.2 °C 14.9 °C 1010.4 hPa SSW 5.6 km/h 2.4 km/h 47 % 0 mm
10:49 27.6 °C 15.2 °C 1010.4 hPa South 3.2 km/h 0.6 km/h 47 % 0 mm
10:54 28.4 °C 13.2 °C 1010.4 hPa SSW 3.7 km/h 2.1 km/h 39 % 0 mm
10:59 28.9 °C 11.4 °C 1010.4 hPa SSW 9.3 km/h 5.3 km/h 34 % 0 mm
11:04 29.2 °C 11.7 °C 1010.4 hPa SSW 3.7 km/h 2.7 km/h 34 % 0 mm
11:09 29.8 °C 11.8 °C 1010.4 hPa SSW 6.4 km/h 7.4 km/h 33 % 0 mm
11:14 30.2 °C 12.2 °C 1010.4 hPa South 12.9 km/h 5.5 km/h 33 % 0 mm
11:19 30.1 °C 12.1 °C 1010.4 hPa SSW 5.6 km/h 0.5 km/h 33 % 0 mm
11:24 30.6 °C 11.6 °C 1010 hPa SSW 5.6 km/h 4.5 km/h 31 % 0 mm
11:29 30.8 °C 12.2 °C 1010 hPa North 11.3 km/h 12.9 km/h 32 % 0 mm
11:34 30.7 °C 11.7 °C 1010 hPa North 9.3 km/h 7.2 km/h 31 % 0 mm
11:39 30.8 °C 11.2 °C 1010 hPa North 11.1 km/h 6 km/h 30 % 0 mm
11:44 30.8 °C 11.2 °C 1010 hPa North 13 km/h 6 km/h 30 % 0 mm
11:49 31 °C 9.8 °C 1010 hPa North 13 km/h 6.3 km/h 27 % 0 mm
11:54 31.3 °C 10.1 °C 1009.7 hPa North 14.5 km/h 6.8 km/h 27 % 0 mm
11:59 31.8 °C 9.4 °C 1009.7 hPa North 11.3 km/h 8.5 km/h 25 % 0 mm
12:04 32.2 °C 7.8 °C 1009.7 hPa North 14.8 km/h 9.2 km/h 22 % 0 mm
12:09 31.9 °C 7.5 °C 1009.7 hPa NW 13 km/h 10.9 km/h 22 % 0 mm
12:14 32.2 °C 8.4 °C 1009.4 hPa NNW 14.8 km/h 7.9 km/h 23 % 0 mm
12:19 32.8 °C 6.2 °C 1009.4 hPa North 20.4 km/h 10.6 km/h 19 % 0 mm
12:24 32.9 °C 7 °C 1009.4 hPa NNW 9.7 km/h 4.5 km/h 20 % 0 mm
12:29 33.3 °C 7.3 °C 1009 hPa NNW 18.5 km/h 10.6 km/h 20 % 0 mm
12:34 33.1 °C 6.4 °C 1009.4 hPa NW 14.5 km/h 9.5 km/h 19 % 0 mm
12:39 33.1 °C 6.3 °C 1009.4 hPa North 9.3 km/h 7.7 km/h 19 % 0 mm
12:44 33.3 °C 5.8 °C 1009 hPa NNW 13 km/h 4.3 km/h 18 % 0 mm
12:49 33.6 °C 4.3 °C 1009 hPa North 19.3 km/h 11.3 km/h 16 % 0 mm
12:54 33.7 °C 5.3 °C 1009 hPa North 11.3 km/h 6.4 km/h 17 % 0 mm
12:59 34 °C 5.5 °C 1009 hPa NNW 18.5 km/h 9.2 km/h 17 % 0 mm
13:04 34.1 °C 6.4 °C 1009 hPa NNW 17.7 km/h 9.3 km/h 18 % 0 mm
13:09 34 °C 5.5 °C 1008.7 hPa North 20.4 km/h 11.3 km/h 17 % 0 mm
13:14 34.1 °C 4.7 °C 1008.7 hPa NNE 18.5 km/h 11.7 km/h 16 % 0 mm
13:19 34.2 °C 1.8 °C 1008.7 hPa North 18.5 km/h 8.4 km/h 13 % 0 mm
13:24 34.4 °C 3.1 °C 1008.7 hPa NNW 13 km/h 10.8 km/h 14 % 0 mm
13:29 34.5 °C 4.1 °C 1008.7 hPa NNW 16.7 km/h 7.7 km/h 15 % 0 mm
13:34 34.9 °C 3.4 °C 1008.7 hPa NNE 18.5 km/h 10.9 km/h 14 % 0 mm
13:39 35.1 °C 3.6 °C 1008.7 hPa North 16.7 km/h 9 km/h 14 % 0 mm
13:44 35.4 °C 3.8 °C 1008.7 hPa NNW 14.8 km/h 8.4 km/h 14 % 0 mm
13:49 35.6 °C 4 °C 1008.7 hPa NNW 13 km/h 5.8 km/h 14 % 0 mm
13:54 35.9 °C 5.2 °C 1008.7 hPa NNW 9.3 km/h 3.5 km/h 15 % 0 mm
13:59 35.9 °C 4.3 °C 1008.7 hPa North 16.7 km/h 12.4 km/h 14 % 0 mm
14:04 36.1 °C 2.2 °C 1008.7 hPa North 16.7 km/h 9.8 km/h 12 % 0 mm
14:09 36.1 °C 2.2 °C 1008.7 hPa NW 14.8 km/h 12.4 km/h 12 % 0 mm
14:14 36.3 °C 1.1 °C 1008.4 hPa NW 5.6 km/h 6.4 km/h 11 % 0 mm
14:19 36.2 °C 2.3 °C 1008.4 hPa NW 13 km/h 7.7 km/h 12 % 0 mm
14:24 36.4 °C 4.7 °C 1008.4 hPa NNE 18.5 km/h 11.1 km/h 14 % 0 mm
14:29 36.6 °C 2.6 °C 1008.4 hPa NNW 11.1 km/h 11.3 km/h 12 % 0 mm
14:34 36.4 °C 2.4 °C 1008.4 hPa NW 13 km/h 9 km/h 12 % 0 mm
14:39 36.3 °C 2.4 °C 1008.4 hPa North 12.9 km/h 4.7 km/h 12 % 0 mm
14:44 36.6 °C 2.6 °C 1008.4 hPa WNW 18.5 km/h 10.5 km/h 12 % 0 mm
14:49 36.8 °C 2.8 °C 1008.4 hPa WNW 11.1 km/h 9.2 km/h 12 % 0 mm
14:54 36.8 °C 3.9 °C 1008 hPa WNW 11.1 km/h 4.3 km/h 13 % 0 mm
14:59 37.1 °C 4.1 °C 1008 hPa WNW 11.1 km/h 4.5 km/h 13 % 0 mm
15:04 37.7 °C 2.2 °C 1008 hPa WNW 18.5 km/h 11.7 km/h 11 % 0 mm
15:09 37.5 °C 2.1 °C 1008 hPa NW 9.7 km/h 8.2 km/h 11 % 0 mm
15:14 37.5 °C 2.1 °C 1008 hPa SW 16.1 km/h 13.5 km/h 11 % 0 mm
15:19 37.6 °C 0.8 °C 1008 hPa SW 11.1 km/h 7.1 km/h 10 % 0 mm
15:24 37.9 °C 1 °C 1008 hPa West 18.5 km/h 10.9 km/h 10 % 0 mm
15:29 37.4 °C 2 °C 1008 hPa WSW 16.7 km/h 7.1 km/h 11 % 0 mm
15:34 37.2 °C 3.1 °C 1008 hPa SW 13 km/h 8.4 km/h 12 % 0 mm
15:39 37.3 °C 3.2 °C 1008 hPa SW 9.3 km/h 7.9 km/h 12 % 0 mm
15:44 37.8 °C 4.7 °C 1008 hPa North 16.7 km/h 5.6 km/h 13 % 0 mm
15:49 38.4 °C 5.1 °C 1007.7 hPa West 7.4 km/h 2.7 km/h 13 % 0 mm
15:54 38.7 °C 4.2 °C 1007.7 hPa West 11.3 km/h 11.6 km/h 12 % 0 mm
15:59 38.6 °C 5.2 °C 1007.7 hPa West 4.8 km/h 1.1 km/h 13 % 0 mm
16:04 38.4 °C 5.2 °C 1007.7 hPa West 6.4 km/h 2.3 km/h 13 % 0 mm
16:09 38.4 °C 5.2 °C 1007.7 hPa North 8 km/h 4.5 km/h 13 % 0 mm
16:14 38.3 °C 5 °C 1007.7 hPa West 13 km/h 9.7 km/h 13 % 0 mm
16:19 37.9 °C 5.8 °C 1007.3 hPa West 9.3 km/h 5.3 km/h 14 % 0 mm
16:24 38.2 °C 6 °C 1007.3 hPa West 6.4 km/h 5.3 km/h 14 % 0 mm
16:29 38.4 °C 5.1 °C 1007.3 hPa SW 16.7 km/h 9.7 km/h 13 % 0 mm
16:34 38.3 °C 5.1 °C 1007.3 hPa SW 11.1 km/h 6.3 km/h 13 % 0 mm
16:39 38.5 °C 6.3 °C 1007.3 hPa SW 9.7 km/h 8 km/h 14 % 0 mm
16:44 38.6 °C 5.2 °C 1007.3 hPa SW 14.8 km/h 12.7 km/h 13 % 0 mm
16:49 38.4 °C 5.2 °C 1007.3 hPa SW 9.7 km/h 6.3 km/h 13 % 0 mm
16:54 38.7 °C 5.3 °C 1007 hPa WSW 9.3 km/h 1.8 km/h 13 % 0 mm
16:59 39.1 °C 4.5 °C 1007 hPa SE 18.5 km/h 10.8 km/h 12 % 0 mm
17:04 38.9 °C 4.4 °C 1007 hPa SSW 18.5 km/h 13.4 km/h 12 % 0 mm
17:09 38.3 °C 3.9 °C 1006.7 hPa SW 22.2 km/h 17.7 km/h 12 % 0 mm
17:14 38.1 °C 4.8 °C 1006.7 hPa SSW 25.9 km/h 12.6 km/h 13 % 0 mm
17:19 38.2 °C 4.9 °C 1006.7 hPa South 18.5 km/h 15.8 km/h 13 % 0 mm
17:24 38.1 °C 4.9 °C 1006.7 hPa South 14.8 km/h 8.5 km/h 13 % 0 mm
17:29 38.2 °C 4.9 °C 1006.7 hPa South 14.8 km/h 11.3 km/h 13 % 0 mm
17:34 38.2 °C 3.8 °C 1006.7 hPa SSW 24.1 km/h 15.1 km/h 12 % 0 mm
17:39 38.1 °C 4.8 °C 1006.7 hPa SSW 9.3 km/h 8.4 km/h 13 % 0 mm
17:44 38.1 °C 3.7 °C 1006.7 hPa South 11.1 km/h 8.5 km/h 12 % 0 mm
17:49 38.3 °C 2.7 °C 1006.7 hPa SSW 9.7 km/h 6.6 km/h 11 % 0 mm
17:54 38.3 °C 8.1 °C 1006.7 hPa SSW 32.2 km/h 21.4 km/h 16 % 0 mm
17:59 37.4 °C 7.4 °C 1007 hPa South 27.8 km/h 17.9 km/h 16 % 0 mm
18:04 37.2 °C 11.2 °C 1007 hPa South 33.3 km/h 22.9 km/h 21 % 0 mm
18:09 36.3 °C 11.2 °C 1007 hPa SSW 27.8 km/h 21.6 km/h 22 % 0 mm
18:14 36.1 °C 11.7 °C 1007 hPa SW 29 km/h 23.5 km/h 23 % 0 mm
18:19 35.7 °C 12 °C 1007 hPa SSW 27.8 km/h 17.2 km/h 24 % 0 mm
18:24 35.7 °C 12 °C 1007 hPa SSW 35.2 km/h 18.8 km/h 24 % 0 mm
18:29 35.7 °C 12 °C 1007.3 hPa South 27.8 km/h 16.4 km/h 24 % 0 mm
18:34 35.6 °C 11.3 °C 1007.3 hPa SSW 25.7 km/h 22.2 km/h 23 % 0 mm
18:39 35.5 °C 12.4 °C 1007.3 hPa SSW 29.6 km/h 24.6 km/h 25 % 0 mm
18:44 35.1 °C 11.5 °C 1007.3 hPa SSW 27.8 km/h 17.1 km/h 24 % 0 mm
18:49 34.9 °C 12.6 °C 1007.3 hPa South 29.6 km/h 14.3 km/h 26 % 0 mm
18:54 34.7 °C 11.8 °C 1007.3 hPa SSW 27.8 km/h 21.9 km/h 25 % 0 mm
18:59 34.6 °C 12.3 °C 1007.3 hPa SSW 25.9 km/h 14.5 km/h 26 % 0 mm
19:04 34.3 °C 12.7 °C 1007.3 hPa SSW 18.5 km/h 10.1 km/h 27 % 0 mm
19:09 34.6 °C 12.8 °C 1007.3 hPa SSW 20.4 km/h 15.6 km/h 27 % 0 mm
19:14 34.4 °C 13.2 °C 1007.7 hPa South 25.9 km/h 14.2 km/h 28 % 0 mm
19:19 34.2 °C 13.1 °C 1007.7 hPa SW 22.2 km/h 18.2 km/h 28 % 0 mm
19:24 34.2 °C 13.6 °C 1007.7 hPa South 25.9 km/h 12.1 km/h 29 % 0 mm
19:29 34 °C 14 °C 1007.7 hPa South 22.2 km/h 15.9 km/h 30 % 0 mm
19:34 33.7 °C 14.2 °C 1007.7 hPa SSW 27.8 km/h 16.3 km/h 31 % 0 mm
19:39 33.4 °C 14.4 °C 1007.7 hPa SSW 22.2 km/h 12.6 km/h 32 % 0 mm
19:44 33.1 °C 14.2 °C 1008 hPa South 19.3 km/h 11.9 km/h 32 % 0 mm
19:49 32.8 °C 13.9 °C 1008 hPa SSW 18.5 km/h 16.4 km/h 32 % 0 mm
19:54 32.6 °C 14.2 °C 1008 hPa SSW 22.5 km/h 19.3 km/h 33 % 0 mm
19:59 32.4 °C 14.1 °C 1008 hPa South 22.2 km/h 17.1 km/h 33 % 0 mm
20:04 32.3 °C 14.4 °C 1008 hPa SSW 13 km/h 12.2 km/h 34 % 0 mm
20:09 31.9 °C 14.5 °C 1008.4 hPa South 18.5 km/h 16.9 km/h 35 % 0 mm
20:14 31.6 °C 14.7 °C 1008.4 hPa South 20.4 km/h 6 km/h 36 % 0 mm
20:19 31.2 °C 14.4 °C 1008.4 hPa South 22.2 km/h 12.2 km/h 36 % 0 mm
20:24 30.9 °C 14.5 °C 1008.4 hPa SSW 16.7 km/h 10 km/h 37 % 0 mm
20:29 30.6 °C 14.2 °C 1008.7 hPa South 18.5 km/h 14 km/h 37 % 0 mm
20:34 30.3 °C 14.4 °C 1008.7 hPa South 20.4 km/h 5.8 km/h 38 % 0 mm
20:39 29.9 °C 14.1 °C 1008.7 hPa South 19.3 km/h 12.2 km/h 38 % 0 mm
20:44 29.6 °C 13.8 °C 1008.7 hPa South 14.8 km/h 9.8 km/h 38 % 0 mm
20:49 29.3 °C 13.1 °C 1008.7 hPa South 14.8 km/h 6.6 km/h 37 % 0 mm
20:54 29.1 °C 13.3 °C 1009 hPa South 9.3 km/h 5 km/h 38 % 0 mm
20:59 28.7 °C 13.4 °C 1009 hPa South 5.6 km/h 4.5 km/h 39 % 0 mm
21:04 28.3 °C 13 °C 1009 hPa South 9.3 km/h 4.7 km/h 39 % 0 mm
21:09 27.9 °C 12.3 °C 1009 hPa South 9.3 km/h 4.7 km/h 38 % 0 mm
21:14 27.5 °C 11.5 °C 1009 hPa South 11.1 km/h 6.6 km/h 37 % 0 mm
21:19 27.3 °C 10.9 °C 1009 hPa South 7.4 km/h 4.8 km/h 36 % 0 mm
21:24 26.9 °C 10.2 °C 1009 hPa South 13 km/h 6.1 km/h 35 % 0 mm
21:29 26.7 °C 10 °C 1009 hPa South 9.3 km/h 4.5 km/h 35 % 0 mm
21:34 26.6 °C 9.4 °C 1009.4 hPa South 5.6 km/h 4 km/h 34 % 0 mm
21:39 26.3 °C 9.2 °C 1009 hPa South 11.1 km/h 7.2 km/h 34 % 0 mm
21:44 26.1 °C 9 °C 1009.4 hPa South 7.4 km/h 4 km/h 34 % 0 mm
21:49 25.9 °C 9.3 °C 1009.4 hPa South 9.3 km/h 6.8 km/h 35 % 0 mm
21:54 25.7 °C 9.1 °C 1009.4 hPa South 7.4 km/h 6.6 km/h 35 % 0 mm
21:59 25.5 °C 8.9 °C 1009.4 hPa South 7.4 km/h 4.8 km/h 35 % 0 mm
22:04 25.5 °C 8.5 °C 1009.4 hPa South 13 km/h 6.1 km/h 34 % 0 mm
22:09 25.4 °C 8 °C 1009.4 hPa South 13 km/h 7.7 km/h 33 % 0 mm
22:14 25.3 °C 7.9 °C 1009.4 hPa South 9.3 km/h 6.6 km/h 33 % 0 mm
22:19 25.3 °C 7.4 °C 1009.4 hPa South 11.3 km/h 8 km/h 32 % 0 mm
22:24 25.2 °C 6.8 °C 1009.7 hPa South 7.4 km/h 6.1 km/h 31 % 0 mm
22:29 25.1 °C 6.3 °C 1009.7 hPa South 11.3 km/h 6.8 km/h 30 % 0 mm
22:34 25.1 °C 6.3 °C 1009.4 hPa South 11.1 km/h 7.9 km/h 30 % 0 mm
22:39 25 °C 6.2 °C 1009.7 hPa South 13 km/h 9.3 km/h 30 % 0 mm
22:44 24.9 °C 6.2 °C 1009.4 hPa South 14.8 km/h 8.5 km/h 30 % 0 mm
22:49 25 °C 6.2 °C 1009.4 hPa South 13 km/h 9.3 km/h 30 % 0 mm
22:53 24.9 °C 6.2 °C 1009.4 hPa South 11.3 km/h 7.6 km/h 30 % 0 mm
22:59 24.8 °C 6.1 °C 1009.4 hPa South 9.3 km/h 7.1 km/h 30 % 0 mm
23:04 24.7 °C 6.4 °C 1009.4 hPa South 11.3 km/h 9.3 km/h 31 % 0 mm
23:09 24.4 °C 6.2 °C 1009.4 hPa South 9.3 km/h 6 km/h 31 % 0 mm
23:14 24.2 °C 6.4 °C 1009.4 hPa South 5.6 km/h 5.1 km/h 32 % 0 mm
23:19 23.9 °C 6.6 °C 1009.4 hPa South 11.1 km/h 8.7 km/h 33 % 0 mm
23:24 23.8 °C 6.6 °C 1009.4 hPa South 7.4 km/h 1.8 km/h 33 % 0 mm
23:29 23.5 °C 6.7 °C 1009.4 hPa South 8 km/h 3.4 km/h 34 % 0 mm
23:34 23.2 °C 7.3 °C 1009.4 hPa South 9.3 km/h 5.8 km/h 36 % 0 mm
23:39 23 °C 7.5 °C 1009 hPa South 11.1 km/h 7.1 km/h 37 % 0 mm
23:44 22.9 °C 7.4 °C 1009 hPa South 5.6 km/h 2.3 km/h 37 % 0 mm
23:49 22.8 °C 7.8 °C 1009 hPa South 5.6 km/h 3.9 km/h 38 % 0 mm
23:54 22.7 °C 7.7 °C 1009 hPa South 3.7 km/h 0.5 km/h 38 % 0 mm
23:59 22.6 °C 7.9 °C 1009 hPa South 1.9 km/h 1.8 km/h 39 % 0 mm
Ararat Weather
Compliments of Weather Underground - 2.25 mb
Click here to send mail.


ABOUT

Live weather data from Ararat, Victoria, Australia, 3377
Data uploaded from Cumulus every 5 minutes to Weather Underground.
This site then downloads the raw data for formatting and display.
Metric and imperial data can be displayed. Graphs and historical data available.
Includes Sun and Moon times and rain image live from BOM.

Check out Ararat Weather on Facebook, Twitter and Google +

Help support ongoing costs by checking out the ads





Follow @AraratWeather